COSMOS 1275 DEB

Satellite information

Favourite Embed

Satellite Type and Status

DEBRISIN ORBIT

Key statistics

Satellite COSMOS 1275 DEB at a glance.

Uptime

16159

Days in orbit

Revolutions

≈ 14.4

Per day

Orbit

LEO

Low Earth Orbit

Inclination

82.8

Latest

Satellite identification and parameters

Extended collection of information and parameters for COSMOS 1275 DEB.

Object identification

Identified? True

Debris? True

Object name: COSMOS 1275 DEB

International designator: 1981-053CH

Object number (NORAD): 12740

Object ID (CCSDS): 12740

Country: COMMONWEALTH OF INDEPENDENT STATES (CIS)

Current information (Y/N): Y

RCS size: SMALL

Orbital parameters

Period: 100.159 minutes

Inclination: 82.8357 deg

SMA: 7144.187 km

Apoapsis: 775.774 km

Periapsis: 756.33 km

RAAN: 84.5769 deg

Eccentricy: 0.00136087

Argument of periapsis: 311.2481 deg

Mean anomaly: 63.6777 deg

Mean motion: 14.37717425 rev/day

Mean motion (dot): 0.00005491 rev/day2

B* drag term: 0.0018186287 1/REarth

Two-line elements (TLE)

Creation date: Aug. 31, 2025, 2:26 a.m.

Reference frame: TEME

Reference center: EARTH

Epoch: Aug. 30, 2025, 7:36 p.m. UTC

TLE line 0: 0 COSMOS 1275 DEB

TLE line 1: 1 12740U 81053CH 25242.81703265 .00005491 00000-0 18186-2 0 9993

TLE line 2: 2 12740 82.8357 84.5769 0013609 311.2481 63.6777 14.37717425255545

Live tracking on map

Real-time ground track for satellite COSMOS 1275 DEB.

In-orbit conjunctions

A list of the most updated potential collisions computed for object COSMOS 1275 DEB.

Target Orbit TCA Probability of collision Miss distance Type
IRS 1D SSO 2025-03-13 09:01:03 0.0001535793 871.0 (m) PAYLOAD
THORAD DELTA 1 DEB SSO 2024-11-16 14:51:31 0.0001532486 770.0 (m) DEBRIS
COSMOS 858 LEO 2024-11-05 03:57:05 0.0002004587 273.0 (m) PAYLOAD
COSMOS 1867 COOLANT LEO 2024-06-19 21:40:30 0.0001538368 154.0 (m) DEBRIS

Associated space launch

Navigation satellite providing location information for the Tsiklon-B navigation system

COSMOS 1275 DEB was lifted into orbit during the mission ‘Kosmos-3M | Parus 27’, on board a Kosmos-3M space rocket.

The launch took place on June 4, 1981, 3:41 p.m. from 132/2.

For more information about the launch, click the button.

Launch to space Kosmos-3M | Parus 27
Kosmos-3M | Parus 27

Agency: N/A

Status: Launch Successful

Launch date: June 4, 1981, 3:41 p.m. UTC

Rocket: Kosmos-3M

Launch pad: 132/2

Location: Plesetsk Cosmodrome, Russian Federation

...

Latest news about this satellite

There are no fresh news available about this satellite. Check back as we update our databases every day.


Newsletter sign-up

Weekly statistics, charts and insights to help you stay on top of the space industry.